Flag for U.S.A. Weather past 2 weeks in Norwalk, California, U.S.A.

Now
82 °F

Sunny.


Feels Like: 83 °F
Forecast: 68 / 85 °F
Wind: 7 mph from Southwest

Location: Fullerton Municipal Airport

Current Time: Aug 1, 2015 at 3:48:43 PM

Latest Report: Aug 1, 2015 at 1:53 PM


Visibility: 10 mi

Pressure: 29.90 "Hg

Humidity: 53%

Dew point: 63 °F

Location of NorwalkLocation

Historic Weather in Norwalk — Graph

°F

Norwalk temperature yesterday

Maximum temperature yesterday: 87 °F (at 3:53 PM)
Minimum temperature yesterday: 71 °F (at 1:53 AM)
Average temperature yesterday: 77 °F

Past Weeks' High & Low Weather Summary

 TemperatureHumidityPressure
High90 °F (Jul 19, 10:53 AM)91% (Jul 18, 8:53 PM)30.07 "Hg (Jul 18, 8:53 PM)
Low68 °F (Jul 18, 4:53 AM)30% (Jul 18, 11:53 AM)29.77 "Hg (Jul 17, 4:53 PM)
Average76 °F68%29.93 "Hg
* Reported Jul 17 1:53 PM — Aug 1 1:53 PM, Norwalk, Weather by CustomWeather, © 2015

Note: Actual official high and low records may vary slightly from our data, if they occured in-between our weather recording intervals... More about our weather records

Advertising

Norwalk weather history for previous 24 hours

 ConditionsComfort  
Time TempWeatherWind HumidityBarometerVisibility
1:53 PM
Sat, Aug 1
82 °FSunny.7 mph53%29.90 "Hg10 mi
12:53 PM82 °FSunny.9 mph53%29.92 "Hg10 mi
11:53 AM81 °FSunny.7 mph54%29.94 "Hg10 mi
10:53 AM79 °FSunny.3 mph56%29.95 "Hg10 mi
9:53 AM76 °FPassing clouds.No wind64%29.97 "Hg10 mi
8:53 AM73 °FOvercast.3 mph71%29.97 "Hg10 mi
7:53 AM71 °FOvercast.3 mph76%29.97 "Hg9 mi
6:53 AM71 °FOvercast.5 mph78%29.97 "Hg8 mi
5:53 AM71 °FOvercast.3 mph81%29.95 "Hg8 mi
4:53 AM71 °FOvercast.No wind81%29.94 "Hg7 mi
3:53 AM71 °FOvercast.No wind81%29.94 "Hg8 mi
2:53 AM71 °FOvercast.No wind81%29.95 "Hg9 mi
1:53 AM71 °FOvercast.No wind84%29.95 "Hg9 mi
12:53 AM71 °FClear.No wind84%29.95 "Hg9 mi
11:53 PM
Fri, Jul 31
72 °FClear.No wind81%29.95 "Hg8 mi
10:53 PM73 °FClear.3 mph79%29.95 "Hg9 mi
9:53 PM74 °FClear.3 mph76%29.95 "Hg10 mi
8:53 PM76 °FClear.6 mph72%29.94 "Hg10 mi
7:53 PM79 °FSunny.5 mph62%29.92 "Hg10 mi
6:53 PM83 °FSunny.6 mph53%29.90 "Hg10 mi
5:53 PM86 °FSunny.8 mph49%29.90 "Hg10 mi
4:53 PM87 °FSunny.7 mph50%29.92 "Hg10 mi
3:53 PM87 °FSunny.7 mph50%29.93 "Hg10 mi
Weather by CustomWeather, © 2015

See weather overviewHow to use our weather pages